Regional Weather Roundup
Issued by NWS Bismarck, ND

Home | Current Version | Previous Version | Text Only | Print | Product List | Glossary On
Versions: 1 2 3 4 5 6 7 8 9 10 11 12 13 14 15 16 17 18 19 20 21 22 23 24 25 26 27 28 29 30 31 32 33 34 35 36 37 38 39 40 41 42 43 44 45 46 47 48 49 50
000
ASUS43 KBIS 221510
RWRBIS

NWR BROADCAST TEXT
NATIONAL WEATHER SERVICE BISMARCK ND
900 AM CST MON JAN 22 2018

NOTE: "FAIR" INDICATES FEW OR NO CLOUDS BELOW 12,000 FEET WITH NO
SIGNIFICANT WEATHER AND/OR OBSTRUCTIONS TO VISIBILITY.


CITY           SKY/WX    TMP DP  RH WIND       PRES   REMARKS
WILLISTON      FAIR       4   1  88 CALM      30.03R
MINOT          FOG       10   8  92 CALM      30.04R VSB 1/4
MINOT AFB      FOG       11   8  87 CALM      30.04R VSB 1/4
BISMARCK       FOG       19  17  92 W6        30.05R VSB 1/4 WCI  11
DICKINSON      FAIR      13   9  84 W9        29.97R WCI   1
GARRISON         N/A      5   2  87 VRB3      30.02R
HETTINGER ARPT CLEAR     10   7  87 W5        29.99R WCI   2
JAMESTOWN      CLOUDY    22  20  92 NE13      30.04R WCI  10
CARRINGTON     CLOUDY    23  21  93 NE8G14    30.06S WCI  14
LINTON           N/A     21  21 100 NE6       30.03R FOG     WCI  14
OAKES            N/A     21  21 100 NE18      30.01S WCI   6
TIOGA          FAIR       1   1 100 CALM      30.01S
$$

CITY           SKY/WX    TMP DP  RH WIND       PRES   REMARKS
GRAND FORKS    CLOUDY    25  20  81 NE13      30.10R WCI  14
GRAND FORKS AF MIX PCPN N/A N/A N/A NE12      30.11R
DEVILS LAKE    CLOUDY    21  21 100 NE7       30.07R WCI  13
FARGO          CLOUDY    26  24  92 N15       30.02R WCI  14
CANDO          CLOUDY    23  23 100 CALM      30.09R
CAVALIER         N/A     21  21 100 N5        30.11R WCI  15
GWINNER          N/A     23  23 100 N14       29.99F FOG     WCI  11
ROLLA          CLOUDY    21  21 100 CALM      30.05S FOG
WALHALLA       FAIR      21  21 100 N5        30.11R WCI  15
$$

CITY           SKY/WX    TMP DP  RH WIND       PRES   REMARKS
ABERDEEN       CLOUDY    22  21  96 N21       29.98F WCI   6
MOBRIDGE       FOG       21  19  92 N6        29.98R VSB 1/4 WCI  13
BUFFALO          N/A     18  12  77 W10       29.90F WCI   6
RAPID CITY     CLEAR     20  12  71 NW6       29.98R WCI  12
GLASGOW        MOCLDY     7   3  84 SE8       29.97R FOG     WCI  -6
SIDNEY         CLEAR      7   4  87 S9        30.03S WCI  -7
WOLF POINT     MOCLDY    -1  -6  79 CALM      30.01S
GLENDIVE       FLURRIES   6   2  83 S9        30.01S WCI  -8
MILES CITY     PTCLDY     8   6  92 S9        30.01R WCI  -5
BAKER          CLEAR      6   3  87 N5        30.00R WCI  -3
$$

CITY           SKY/WX    TMP DP  RH WIND       PRES   REMARKS
BILLINGS       MOCLDY    27  13  55 W22       30.02R WCI  13
GREAT FALLS    CLOUDY    33  19  56 SW18G28   29.98R
REGINA         MOCLDY     9   5  85 SE14      29.92S WCI  -8
ESTEVAN        CRYSTALS   5   1  85 E9        30.01S VSB 1   WCI  -9
$$





USA.gov is the U.S. government's official web portal to all federal, state and local government web resources and services.